Voltar ao catálogo

SL-16 DEB

AtivoLEO
NORAD 39908·DEBRIS·🇷🇺 Russia

Lançado Mar 26, 1993 de Baikonur Cosmodrome

Loading…

Próximas Passagens (próximas 24 horas)

TLE

EnvelhecendoSource: Space-Track

Época: Sep 12, 2026, 13:41 UTC

1 39908U 93016CJ  26255.57035198  .00000338  00000-0  15853-3 0  9995
2 39908  71.0040 317.5829 0011370 247.5217 112.4708 14.27182369637897

Acompanhe SL-16 DEB em tempo real com AllMySat

Download on the App Store